Location: Unspecified
(51.0000°N, 12.0000°E)
Time: 00:09:42
(UTC+01:00)

ISS - Pass Details

Date: 06 January 2018
Orbit: 402 x 407 km, 51.6° (Epoch: 20 January)

Event Time Altitude Azimuth Distance (km) Brightness Sun altitude
Exits shadow 05:13:55 21° 80° (E) 967 -1.2 -27.2°
Drops below altitude 10° 05:15:10 10° 79° (E) 1,470 -0.1 -27.0°
Sets 05:17:16 0° 79° (E) 2,333 1.2 -26.7°
